Location: Владивосток
(43.1151°N, 131.8856°E)
Time: 18:11:12
(UTC+10:00)

FENGYUN 1C DEB - Visible Passes

Search period start: 26 November 2022 00:00
Search period end: 06 December 2022 00:00
Orbit: 781 x 801 km, 99.3° (Epoch: 25 November)

Date Brightness Start Highest point End Pass type
(mag) Time Alt. Az. Time Alt. Az. Time Alt. Az.
26 Nov ? 06:46:30 10° NNE 06:51:30 47° E 06:56:27 10° S visible
26 Nov ? 18:05:14 10° SSE 18:10:29 86° ENE 18:15:44 10° NNW visible
26 Nov ? 19:48:39 10° WSW 19:50:32 12° W 19:52:27 10° WNW visible
27 Nov ? 06:17:48 10° NE 06:22:04 26° E 06:26:18 10° SSE visible
27 Nov ? 19:16:52 10° SW 19:20:56 23° W 19:25:01 10° NW visible
28 Nov ? 05:49:57 10° ENE 05:52:29 14° E 05:55:00 10° ESE visible
28 Nov ? 07:27:17 10° NNE 07:32:28 76° WNW 07:37:35 10° SSW visible
28 Nov ? 18:46:33 10° S 18:51:28 41° W 18:56:24 10° NNW visible
29 Nov ? 06:58:03 10° NNE 07:03:11 59° ESE 07:08:15 10° S visible
29 Nov ? 18:16:53 10° S 18:22:07 77° WSW 18:27:22 10° NNW visible
30 Nov ? 06:29:10 10° NE 06:33:46 32° E 06:38:19 10° SSE visible
30 Nov ? 19:29:08 10° SW 19:32:40 18° W 19:36:12 10° NW visible
01 Dec ? 06:00:52 10° NE 06:04:13 17° E 06:07:33 10° SE visible
01 Dec ? 07:38:56 10° N 07:44:02 61° WNW 07:49:05 10° SSW visible
01 Dec ? 18:58:27 10° SSW 19:03:08 33° W 19:07:50 10° NNW visible
02 Dec ? 07:09:36 10° NNE 07:14:47 74° ESE 07:19:55 10° S visible
02 Dec ? 18:28:33 10° S 18:33:43 61° WSW 18:38:54 10° NNW visible
03 Dec ? 06:40:34 10° NNE 06:45:24 39° E 06:50:12 10° SSE visible
03 Dec ? 17:59:13 10° SSE 18:04:26 74° ENE 18:09:38 10° N visible
03 Dec ? 19:41:35 10° WSW 19:44:21 14° W 19:47:08 10° WNW visible
04 Dec ? 06:11:58 10° NE 06:15:53 21° E 06:19:46 10° SE visible
04 Dec ? 07:50:34 10° N 07:55:32 49° WNW 08:00:29 10° SW visible
04 Dec ? 19:10:24 10° SSW 19:14:46 27° W 19:19:09 10° NW visible
05 Dec ? 05:44:48 10° ENE 05:46:13 11° E 05:47:38 10° ESE visible
05 Dec ? 07:21:08 10° NNE 07:26:19 89° WNW 07:31:28 10° SSW visible
05 Dec ? 18:40:14 10° S 18:45:17 49° W 18:50:21 10° NNW visible
